Location: Azul
(36.7830°S, 59.8500°W)
Time: 16:53:40
(UTC-03:00)

ISS - Pass Details

Date: 15 June 2019
Orbit: 407 x 419 km, 51.6° (Epoch: 26 June)

Event Time Altitude Azimuth Distance (km) Brightness Sun altitude
Exits shadow 05:34:49 13° 58° (ENE) 1,323 -0.5 -30.2°
Drops below altitude 10° 05:35:14 10° 57° (ENE) 1,494 -0.2 -30.2°
Sets 05:37:19 0° 54° (NE) 2,348 0.9 -29.7°
